This is the latest recevied weather packets stored in our database for station/object N2XP. If no packets are shown the sender has not sent any weather packets the latest 10 day(s).
| Time | Temp. | Humidity | Pressure | Rain* | Wind** | Luminosity | Snow |
|---|---|---|---|---|---|---|---|
| 1777755612 | 13.89° C | 39% | 1008.2 hPa | 0 mm | - | - | - |
| 1777754709 | 14.44° C | 40% | 1008.2 hPa | 0 mm | - | - | - |
| 1777753807 | 13.89° C | 42% | 1008.3 hPa | 0 mm | - | - | - |
| 1777752920 | 13.89° C | 42% | 1008.3 hPa | 0 mm | - | - | - |
| 1777752005 | 14.44° C | 39% | 1008.4 hPa | 0 mm | - | - | - |
| 1777751164 | 14.44° C | 43% | 1008.6 hPa | 0 mm | - | - | - |
| 1777751102 | 13.89° C | 44% | 1008.6 hPa | 0 mm | - | - | - |
| 1777750276 | 13.33° C | 44% | 1008.9 hPa | 0 mm | - | - | - |
| 1777749358 | 13.89° C | 42% | 1009.1 hPa | 0 mm | - | - | - |
| 1777748457 | 13.89° C | 43% | 1009.3 hPa | 0 mm | - | - | - |
| 1777747562 | 13.89° C | 42% | 1009.4 hPa | 0 mm | - | - | - |
| 1777746656 | 13.89° C | 47% | 1009.4 hPa | 0 mm | - | - | - |
| 1777745756 | 12.78° C | 45% | 1009.6 hPa | 0 mm | - | - | - |
| 1777744859 | 13.33° C | 48% | 1009.8 hPa | 0 mm | - | - | - |
| 1777743951 | 13.33° C | 49% | 1009.5 hPa | 0 mm | - | - | - |
| 1777743049 | 13.33° C | 47% | 1009.6 hPa | 0 mm | - | - | - |
| 1777742160 | 13.33° C | 49% | 1009.7 hPa | 0 mm | - | - | - |
| 1777741244 | 12.22° C | 55% | 1010 hPa | 0 mm | - | - | - |
| 1777740344 | 12.22° C | 53% | 1010.1 hPa | 0 mm | - | - | - |
| 1777739442 | 12.22° C | 56% | 1010.3 hPa | 0 mm | - | - | - |
| 1777738541 | 12.78° C | 57% | 1010.3 hPa | 0 mm | - | - | - |
| 1777737639 | 11.67° C | 57% | 1010.4 hPa | 0 mm | - | - | - |
| 1777736735 | 11.67° C | 56% | 1010.6 hPa | 0 mm | - | - | - |
| 1777735832 | 11.67° C | 61% | 1010.6 hPa | 0 mm | - | - | - |
| 1777734927 | 11.11° C | 61% | 1010.5 hPa | 0 mm | - | - | - |
* Rain latest hour (hover to see other rain measurements)
** Current wind speed in m/s (hover to see current wind gust speed)